Location: Asheville, NC
(35.6000°N, 82.5500°W)
Time: 19:45:28
(UTC-04:00)

Vanguard 1 - Pass Details

Date: 11 March 2018
Orbit: 650 x 3833 km, 34.3° (Epoch: 23 June)

Event Time Altitude Azimuth Distance (km) Brightness Sun altitude
Rises 14:18:16 0° 275° (W) 7,969 14.8 49.9°
Reaches altitude 10° 14:23:55 10° 275° (W) 6,845 14.6 49.6°
Maximum altitude 14:45:51 82° 192° (SSW) 2,798 13.5 48.0°
Drops below altitude 10° 14:58:21 10° 106° (ESE) 4,218 13.3 46.8°
Sets 15:00:57 0° 106° (ESE) 4,895 13.5 46.6°
